Regional Weather Roundup
Issued by NWS

Home | Current Version | Previous Version | Graphics & Text | Print | Product List | Glossary On
Versions: 1 2 3 4 5 6 7 8 9 10 11 12 13 14 15 16 17 18 19 20 21 22 23 24 25 26 27 28 29 30 31 32 33 34 35 36 37 38 39 40 41 42 43 44 45 46 47 48 49 50
000
ASUS43 KFSD 221502
RWRSD

WEATHER ROUNDUP FOR SOUTH DAKOTA
NATIONAL WEATHER SERVICE SIOUX FALLS SD
1000 AM CDT TUE APR 22 2014

NOTE: "FAIR" INDICATES FEW OR NO CLOUDS BELOW 12,000 FEET WITH NO
SIGNIFICANT WEATHER AND/OR OBSTRUCTIONS TO VISIBILITY.


SDZ001>005-009-010-012>017-221600-
NORTHWEST AND NORTH CENTRAL SOUTH DAKOTA

CITY           SKY/WX    TMP DP  RH WIND       PRES   REMARKS
FAITH            N/A     53  32  44 SE22G36   29.88F
MOBRIDGE       SUNNY     56  33  42 SE13      29.99F
$$

SDZ012>016-024>037-041>051-057-063-072>074-221600-
SOUTHWEST AND SOUTH CENTRAL SOUTH DAKOTA

CITY           SKY/WX    TMP DP  RH WIND       PRES   REMARKS
RAPID CTY ARPT MOSUNNY   55  35  47 S13       29.86F
PIERRE         CLOUDY    50  34  54 SE15      30.01F
CUSTER         PTSUNNY   58  31  35 CALM      29.91F
PHILIP         MOSUNNY   60  31  33 S15G22    29.91F
PINE RIDGE     MOSUNNY   59  35  40 S26G41    29.88F
WINNER         PTSUNNY   58  31  35 SE18G25   30.03F
$$

SDZ004>011-016>023-039-040-221600-
NORTHEAST SOUTH DAKOTA

CITY           SKY/WX    TMP DP  RH WIND       PRES   REMARKS
ABERDEEN       SUNNY     51  32  48 S13       30.11F
WATERTOWN      SUNNY     50  34  54 S6        30.13F
$$

SDZ017-020-022-023-036>040-048>070-221600-
SOUTHEAST SOUTH DAKOTA

CITY           SKY/WX    TMP DP  RH WIND       PRES   REMARKS
SIOUX FALLS    MOSUNNY   52  31  44 S6        30.15F
HURON          SUNNY     54  32  43 S13       30.12F
CHAMBERLAIN      N/A     57  35  43 S17       30.06F
MITCHELL       SUNNY     55  33  43 S12       30.13F
YANKTON        SUNNY     52  32  46 SE9       30.16S
$$

ABBREVIATIONS USED IN REMARKS
   TC - TEMPERATURE IN CELSIUS
  WCI - WIND CHILL INDEX
   HX - HEAT INDEX
  VSB - VISIBILITY




USA.gov is the U.S. government's official web portal to all federal, state and local government web resources and services.